Regional Weather Roundup
Issued by NWS

Home | Current Version | Previous Version | Text Only | Print | Product List | Glossary Off
Versions: 1 2 3 4 5 6 7 8 9 10 11 12 13 14 15 16 17 18 19 20 21 22 23 24 25 26 27 28 29 30 31 32 33 34 35 36 37 38 39 40 41 42 43 44 45 46 47 48 49 50

000
ASUS44 KMEG 202300
RWRTN
TENNESSEE HOURLY STATE WEATHER ROUNDUP
NATIONAL WEATHER SERVICE MEMPHIS TN
500 PM CST SAT DEC 20 2014

TNZ002-004-019-021-049-052-054-088>092-210000-
WEST TENNESSEE

CITY           SKY/WX    TMP DP  RH WIND       PRES   REMARKS
MEMPHIS INTL   MOCLDY    48  33  56 NE6       30.22R
NWS MEMPHIS      N/A     44 N/A N/A MISG        N/A
JACKSON        CLEAR     43  32  65 NE6       30.23S
DYERSBURG      CLEAR     41  23  48 NE6       30.26R
UNION CITY     CLEAR     39  30  70 CALM      30.24S
PARIS          CLEAR     36  27  69 E3        30.24F
LEXINGTON      CLEAR     41  28  60 NE3       30.23S
SAVANNAH       CLEAR     43  30  61 N6        30.22S
$$

TNZ008-025-027-028-033-062-065-066-210000-
NORTH MIDDLE TENNESSEE

CITY           SKY/WX    TMP DP  RH WIND       PRES   REMARKS
NASHVILLE      MOCLDY    43  29  57 N7        30.25R
CLARKSVILLE    CLEAR     35  27  72 N3        30.26S
COOKEVILLE     MOCLDY    37  30  75 CALM      30.20S
CROSSVILLE     PTCLDY    42  26  53 NW5       30.19R
$$

TNZ061-075-076-078-094-096-097-210000-
SOUTH MIDDLE TENNESSEE

CITY           SKY/WX    TMP DP  RH WIND       PRES   REMARKS
FAYETTEVILLE   CLEAR     43  27  52 MISG      30.20S
TULLAHOMA      CLEAR     43  27  52 CALM      30.21R
WINCHESTER     CLEAR     43  28  56 N5        30.21R
SHELBYVILLE    CLEAR     45  30  57 N3        30.23R
$$

TNZ017-018-042-046-047-210000-
NORTHEAST TENNESSEE

CITY           SKY/WX    TMP DP  RH WIND       PRES   REMARKS
TRI CITIES     CLOUDY    42  37  82 CALM      30.20R
ELIZABETHTON   CLOUDY    39  36  87 CALM      30.19R
$$

TNZ012-013-036-069-073-074-210000-
CENTRAL EAST TENNESSEE

CITY           SKY/WX    TMP DP  RH WIND       PRES   REMARKS
KNOXVILLE      CLOUDY    42  34  73 E3        30.22R
OAK RIDGE      CLOUDY    44  33  65 CALM      30.22R
GATLINBURG     CLOUDY    39  36  87 CALM      30.22R
$$

TNZ083-085-099-210000-
SOUTHEAST TENNESSEE

CITY           SKY/WX    TMP DP  RH WIND       PRES   REMARKS
CHATTANOOGA    PTCLDY    44  33  65 CALM      30.21R
$$

SKY/WX REPORTED AS FAIR MEANS FEW OR NO CLOUDS BELOW
12 THOUSAND FEET.



USA.gov is the U.S. government's official web portal to all federal, state and local government web resources and services.